Weather History for Broomfield, CO

Change the Weather History Date:

Thursday, June 7, 2012

  Actual Average Record
Temperature  
Mean Temperature 70 °F -  
Max Temperature 80 °F 75 °F 96 °F (2004)
Min Temperature 60 °F 51 °F 42 °F (2003)
Cooling Degree Days 5    
Growing Degree Days 20 (Base 50)    
Moisture  
Dew Point 53 °F    
Average Humidity 58    
Maximum Humidity 82    
Minimum Humidity 32    
Precipitation  
Precipitation 0.00 in - - ()
Sea Level Pressure  
Sea Level Pressure 30.04 in    
Wind  
Wind Speed 5 mph (North)    
Max Wind Speed 17 mph    
Max Gust Speed 28 mph    
Visibility 12 miles    
Events Thunderstorm    
Averages and records for this station are not official NWS values.
T = Trace of Precipitation, MM = Missing Value Source: NWS Daily Summary

Daily Weather History Graph

Daily Weather History Graph

Search for Another Location

Airport:

Trip Planner

Search our weather history database for the weather conditions in past years. The results will help you decide how hot, cold, wet, or windy it might be!

Date:

Astronomy

Jun. 07, 2012 Rise Set
Actual Time 5:31 AM MDT 8:27 PM MDT
Civil Twilight 4:59 AM MDT 8:59 PM MDT
Nautical Twilight 4:18 AM MDT 9:40 PM MDT
Astronomical Twilight 3:31 AM MDT 10:28 PM MDT
Moon 11:19 PM MDT (6/7) 9:06 AM MDT (6/7)
Length of Visible Light 16h 00m
Length of Day
14h 55m
Waning Gibbous, 85% of the Moon is Illuminated
Jun 7
Waning Gibbous
Jun 11
Last Quarter
Jun 19
New
Jun 26
First Quarter
Jul 3
Full

Hourly Weather History & Observations

Time (MDT) Temp. Dew Point Humidity Pressure Visibility Wind Dir Wind Speed Gust Speed Precip Events Conditions
5:49 AM 62.6 °F 53.6 °F 72% 30.07 in 30.0 mi North 3.5 mph - N/A   Overcast
6:15 AM 62.6 °F 53.6 °F 72% 30.07 in 30.0 mi NNE 4.6 mph - N/A   Overcast
6:49 AM 60.8 °F 55.4 °F 82% 30.07 in 15.0 mi ENE 3.5 mph - N/A   Overcast
7:38 AM 62.6 °F 55.4 °F 77% 30.08 in 8.0 mi North 3.5 mph - N/A   Overcast
7:53 AM 62.6 °F 55.4 °F 77% 30.08 in 8.0 mi NNW 5.8 mph - N/A   Overcast
8:53 AM 62.6 °F 55.4 °F 77% 30.08 in 8.0 mi North 4.6 mph - N/A   Overcast
9:31 AM 64.4 °F 55.4 °F 73% 30.07 in 8.0 mi North 4.6 mph - N/A   Mostly Cloudy
9:53 AM 66.2 °F 55.4 °F 68% 30.07 in 10.0 mi Calm Calm - N/A   Mostly Cloudy
10:50 AM 68.0 °F 53.6 °F 60% 30.06 in 12.0 mi Calm Calm - N/A   Mostly Cloudy
11:23 AM 71.6 °F 53.6 °F 53% 30.04 in 10.0 mi SSE 6.9 mph - N/A   Mostly Cloudy
11:48 AM 69.8 °F 53.6 °F 56% 30.05 in 12.0 mi Calm Calm - N/A   Mostly Cloudy
12:56 PM 68.0 °F 55.4 °F 64% 30.04 in 10.0 mi NNW 8.1 mph - N/A   Mostly Cloudy
1:53 PM 71.6 °F 57.2 °F 60% 30.03 in 10.0 mi West 4.6 mph - N/A   Mostly Cloudy
2:52 PM 75.2 °F 53.6 °F 47% 30.02 in 10.0 mi Variable 3.5 mph - N/A   Mostly Cloudy
3:52 PM 75.2 °F 50.0 °F 41% 30.00 in 20.0 mi Calm Calm - N/A   Mostly Cloudy
4:55 PM 80.6 °F 50.0 °F 34% 29.98 in 20.0 mi WSW 9.2 mph - N/A   Mostly Cloudy
5:46 PM 80.6 °F 48.2 °F 32% 29.95 in 25.0 mi NW 11.5 mph 16.1 mph N/A   Scattered Clouds
7:47 PM 78.8 °F 48.2 °F 34% 29.96 in 25.0 mi NNW 10.4 mph - N/A   Scattered Clouds
9:47 PM 71.6 °F 48.2 °F 43% 30.01 in 20.0 mi SSE 11.5 mph - N/A   Scattered Clouds
11:12 PM 68.0 °F 50.0 °F 52% 30.06 in 10.0 mi Calm Calm - N/A   Clear
11:32 PM 68.0 °F 50.0 °F 52% 30.09 in 10.0 mi West 3.5 mph - N/A   Scattered Clouds
11:52 PM 64.4 °F 46.4 °F 52% 30.10 in 10.0 mi ENE 17.3 mph 27.6 mph N/A Thunderstorm Mostly Cloudy